Time,TemperatureF,DewpointF,PressureIn,WindDirection,WindDirectionDegrees,WindSpeedMPH,WindSpeedGustMPH,Humidity,HourlyPrecipIn,Conditions,Clouds,dailyrainin,SoftwareType,DateUTC
2013-04-16 00:01:00,28.8,10.6,30.09,NNE,27,2.3,2.3,46,0.00,CLR,SKC,0.00,WeatherDisplay:10.37,2013-04-16 06:01:00,
2013-04-16 00:06:00,28.7,10.5,30.10,NE,36,2.3,2.3,46,0.00,CLR,SKC,0.00,WeatherDisplay:10.37,2013-04-16 06:06:00,
2013-04-16 00:11:00,28.7,10.5,30.10,NE,42,2.3,2.3,46,0.00,CLR,SKC,0.00,WeatherDisplay:10.37,2013-04-16 06:11:00,
2013-04-16 00:16:00,28.7,10.5,30.10,NE,42,2.3,2.3,46,0.00,CLR,SKC,0.00,WeatherDisplay:10.37,2013-04-16 06:16:00,
2013-04-16 00:21:00,28.6,10.4,30.10,NE,34,2.3,2.3,46,0.00,CLR,SKC,0.00,WeatherDisplay:10.37,2013-04-16 06:21:00,
2013-04-16 00:26:00,28.5,10.3,30.10,NNE,30,2.3,2.3,46,0.00,CLR,SKC,0.00,WeatherDisplay:10.37,2013-04-16 06:26:00,
2013-04-16 00:31:00,28.4,10.2,30.10,NNE,28,1.1,1.1,46,0.00,CLR,SKC,0.00,WeatherDisplay:10.37,2013-04-16 06:31:00,
2013-04-16 00:36:00,28.3,10.6,30.10,NNE,28,2.3,2.3,47,0.00,CLR,SKC,0.00,WeatherDisplay:10.37,2013-04-16 06:36:00,
2013-04-16 00:41:00,28.2,10.5,30.10,NNE,28,2.3,2.3,47,0.00,CLR,SKC,0.00,WeatherDisplay:10.37,2013-04-16 06:41:00,
2013-04-16 00:46:00,28.1,10.9,30.10,NNE,28,2.0,2.0,48,0.00,CLR,SKC,0.00,WeatherDisplay:10.37,2013-04-16 06:46:00,
2013-04-16 00:52:00,28.0,10.3,30.10,NE,53,2.3,2.3,47,0.00,CLR,SKC,0.00,WeatherDisplay:10.37,2013-04-16 06:52:00,
2013-04-16 00:57:00,27.9,10.2,30.10,NE,44,2.3,2.3,47,0.00,CLR,SKC,0.00,WeatherDisplay:10.37,2013-04-16 06:57:00,
2013-04-16 01:03:00,27.9,10.2,30.10,NE,37,1.0,2.0,47,0.00,CLR,SKC,0.00,WeatherDisplay:10.37,2013-04-16 07:03:00,
2013-04-16 01:08:00,27.8,10.6,30.10,NNE,29,0.0,3.0,48,0.00,CLR,SKC,0.00,WeatherDisplay:10.37,2013-04-16 07:08:00,
2013-04-16 01:13:00,27.7,10.5,30.10,NNE,32,3.5,3.5,48,0.00,CLR,SKC,0.00,WeatherDisplay:10.37,2013-04-16 07:13:00,
2013-04-16 01:18:00,27.7,10.5,30.10,NNE,28,3.5,3.5,48,0.00,CLR,SKC,0.00,WeatherDisplay:10.37,2013-04-16 07:18:00,
2013-04-16 01:23:00,27.7,10.5,30.10,NE,38,2.3,2.3,48,0.00,CLR,SKC,0.00,WeatherDisplay:10.37,2013-04-16 07:23:00,
2013-04-16 01:28:00,27.5,10.4,30.10,NNE,31,2.3,2.3,48,0.00,CLR,SKC,0.00,WeatherDisplay:10.37,2013-04-16 07:28:00,
2013-04-16 01:34:00,27.5,10.4,30.11,NNE,20,3.5,3.5,48,0.00,CLR,SKC,0.00,WeatherDisplay:10.37,2013-04-16 07:34:00,
2013-04-16 01:39:00,27.5,10.4,30.11,NNE,20,2.0,2.0,48,0.00,CLR,SKC,0.00,WeatherDisplay:10.37,2013-04-16 07:39:00,
2013-04-16 01:44:00,27.4,10.7,30.11,NNE,28,2.3,2.3,49,0.00,CLR,SKC,0.00,WeatherDisplay:10.37,2013-04-16 07:44:00,
2013-04-16 01:49:00,27.4,10.7,30.11,NNE,28,2.3,2.3,49,0.00,CLR,SKC,0.00,WeatherDisplay:10.37,2013-04-16 07:49:00,
2013-04-16 01:54:00,27.4,10.7,30.11,NE,42,2.3,2.3,49,0.00,CLR,SKC,0.00,WeatherDisplay:10.37,2013-04-16 07:54:00,
2013-04-16 01:59:00,27.3,10.6,30.11,NE,42,1.1,1.1,49,0.00,CLR,SKC,0.00,WeatherDisplay:10.37,2013-04-16 07:59:00,
2013-04-16 02:04:00,27.2,10.5,30.12,NE,38,2.3,2.3,49,0.00,CLR,SKC,0.00,WeatherDisplay:10.37,2013-04-16 08:04:00,
2013-04-16 02:09:00,27.1,10.9,30.11,NE,34,2.3,2.3,50,0.00,CLR,SKC,0.00,WeatherDisplay:10.37,2013-04-16 08:09:00,
2013-04-16 02:14:00,27.1,10.9,30.12,NNE,26,2.3,2.3,50,0.00,CLR,SKC,0.00,WeatherDisplay:10.37,2013-04-16 08:14:00,
2013-04-16 02:19:00,27.1,10.9,30.12,NE,38,3.5,3.5,50,0.00,CLR,SKC,0.00,WeatherDisplay:10.37,2013-04-16 08:19:00,
2013-04-16 02:24:00,27.1,10.9,30.12,NNE,31,2.3,2.3,50,0.00,CLR,SKC,0.00,WeatherDisplay:10.37,2013-04-16 08:24:00,
2013-04-16 02:29:00,27.0,10.8,30.12,NNE,31,2.3,2.3,50,0.00,CLR,SKC,0.00,WeatherDisplay:10.37,2013-04-16 08:29:00,
2013-04-16 02:34:00,27.0,10.8,30.12,NNE,31,2.3,2.3,50,0.00,CLR,SKC,0.00,WeatherDisplay:10.37,2013-04-16 08:34:00,
2013-04-16 02:39:00,26.9,11.2,30.13,ENE,68,2.3,2.3,51,0.00,CLR,SKC,0.00,WeatherDisplay:10.37,2013-04-16 08:39:00,
2013-04-16 02:44:00,26.9,10.7,30.13,NE,51,2.3,2.3,50,0.00,CLR,SKC,0.00,WeatherDisplay:10.37,2013-04-16 08:44:00,
2013-04-16 02:49:00,26.9,10.7,30.13,NE,51,2.3,2.3,50,0.00,CLR,SKC,0.00,WeatherDisplay:10.37,2013-04-16 08:49:00,
2013-04-16 02:54:00,26.8,10.6,30.13,NE,51,2.3,2.3,50,0.00,CLR,SKC,0.00,WeatherDisplay:10.37,2013-04-16 08:54:00,
2013-04-16 02:59:00,26.8,10.6,30.13,NE,51,1.1,1.1,50,0.00,CLR,SKC,0.00,WeatherDisplay:10.37,2013-04-16 08:59:00,
2013-04-16 03:04:00,26.7,10.5,30.13,NE,51,2.3,2.3,50,0.00,CLR,SKC,0.00,WeatherDisplay:10.37,2013-04-16 09:04:00,
2013-04-16 03:09:00,26.7,10.5,30.14,NE,44,3.5,3.5,50,0.00,CLR,SKC,0.00,WeatherDisplay:10.37,2013-04-16 09:09:00,
2013-04-16 03:14:00,26.7,10.5,30.14,NE,49,3.5,3.5,50,0.00,CLR,SKC,0.00,WeatherDisplay:10.37,2013-04-16 09:14:00,
2013-04-16 03:19:00,26.7,11.0,30.14,NE,36,1.1,1.1,51,0.00,CLR,SKC,0.00,WeatherDisplay:10.37,2013-04-16 09:19:00,
2013-04-16 03:24:00,26.7,10.5,30.14,NE,36,1.1,1.1,50,0.00,CLR,SKC,0.00,WeatherDisplay:10.37,2013-04-16 09:24:00,
2013-04-16 03:29:00,26.7,11.0,30.14,NE,36,2.3,2.3,51,0.00,CLR,SKC,0.00,WeatherDisplay:10.37,2013-04-16 09:29:00,
2013-04-16 03:34:00,26.6,10.4,30.15,NE,36,2.3,2.3,50,0.00,CLR,SKC,0.00,WeatherDisplay:10.37,2013-04-16 09:34:00,
2013-04-16 03:39:00,26.5,10.8,30.15,NE,36,1.1,1.1,51,0.00,CLR,SKC,0.00,WeatherDisplay:10.37,2013-04-16 09:39:00,
2013-04-16 03:44:00,26.4,10.7,30.15,NE,36,2.3,2.3,51,0.00,CLR,SKC,0.00,WeatherDisplay:10.37,2013-04-16 09:44:00,
2013-04-16 03:49:00,26.4,10.7,30.15,NE,36,1.1,1.1,51,0.00,CLR,SKC,0.00,WeatherDisplay:10.37,2013-04-16 09:49:00,
2013-04-16 03:55:00,26.3,11.0,30.15,NE,36,1.1,1.1,52,0.00,CLR,SKC,0.00,WeatherDisplay:10.37,2013-04-16 09:55:00,
2013-04-16 04:00:00,26.3,10.6,30.15,NE,36,2.3,2.3,51,0.00,CLR,SKC,0.00,WeatherDisplay:10.37,2013-04-16 10:00:00,
2013-04-16 04:05:00,26.2,10.5,30.16,NE,36,2.3,2.3,51,0.00,CLR,SKC,0.00,WeatherDisplay:10.37,2013-04-16 10:05:00,
2013-04-16 04:10:00,26.1,10.9,30.16,NE,36,2.3,2.3,52,0.00,CLR,SKC,0.00,WeatherDisplay:10.37,2013-04-16 10:10:00,
2013-04-16 04:15:00,25.7,10.9,30.16,NE,36,2.3,2.3,53,0.00,CLR,SKC,0.00,WeatherDisplay:10.37,2013-04-16 10:15:00,
2013-04-16 04:21:00,25.7,10.9,30.16,NE,36,2.3,2.3,53,0.00,CLR,SKC,0.00,WeatherDisplay:10.37,2013-04-16 10:21:00,
2013-04-16 04:26:00,25.8,10.6,30.16,NE,36,2.3,2.3,52,0.00,CLR,SKC,0.00,WeatherDisplay:10.37,2013-04-16 10:26:00,
2013-04-16 04:32:00,26.1,10.9,30.16,NE,36,2.3,2.3,52,0.00,CLR,SKC,0.00,WeatherDisplay:10.37,2013-04-16 10:32:00,
2013-04-16 04:37:00,26.2,10.9,30.16,NE,51,2.3,2.3,52,0.00,CLR,SKC,0.00,WeatherDisplay:10.37,2013-04-16 10:37:00,
2013-04-16 04:42:00,26.3,11.0,30.17,NE,51,2.3,2.3,52,0.00,CLR,SKC,0.00,WeatherDisplay:10.37,2013-04-16 10:42:00,
2013-04-16 04:47:00,25.9,11.1,30.17,NE,51,1.1,1.1,53,0.00,CLR,SKC,0.00,WeatherDisplay:10.37,2013-04-16 10:47:00,
2013-04-16 04:52:00,25.7,10.9,30.17,NE,51,0.0,0.0,53,0.00,CLR,SKC,0.00,WeatherDisplay:10.37,2013-04-16 10:52:00,
2013-04-16 04:57:00,25.7,10.9,30.17,NE,51,2.3,2.3,53,0.00,CLR,SKC,0.00,WeatherDisplay:10.37,2013-04-16 10:57:00,
2013-04-16 05:02:00,25.9,10.7,30.17,NE,41,2.3,2.3,52,0.00,CLR,SKC,0.00,WeatherDisplay:10.37,2013-04-16 11:02:00,
2013-04-16 05:07:00,26.2,10.9,30.17,NE,41,2.3,2.3,52,0.00,CLR,SKC,0.00,WeatherDisplay:10.37,2013-04-16 11:07:00,
2013-04-16 05:12:00,26.3,11.0,30.17,NE,41,2.3,2.3,52,0.00,CLR,SKC,0.00,WeatherDisplay:10.37,2013-04-16 11:12:00,
2013-04-16 05:17:00,26.4,10.7,30.17,NE,41,2.3,2.3,51,0.00,CLR,SKC,0.00,WeatherDisplay:10.37,2013-04-16 11:17:00,
2013-04-16 05:23:00,26.5,10.8,30.17,NE,41,1.1,1.1,51,0.00,CLR,SKC,0.00,WeatherDisplay:10.37,2013-04-16 11:23:00,
2013-04-16 05:27:00,26.5,10.8,30.17,NE,41,2.3,2.3,51,0.00,CLR,SKC,0.00,WeatherDisplay:10.37,2013-04-16 11:27:00,
2013-04-16 05:32:00,26.5,10.8,30.17,NE,41,1.1,1.1,51,0.00,CLR,SKC,0.00,WeatherDisplay:10.37,2013-04-16 11:32:00,
2013-04-16 05:37:00,26.5,10.8,30.17,NE,41,2.3,2.3,51,0.00,CLR,SKC,0.00,WeatherDisplay:10.37,2013-04-16 11:37:00,
2013-04-16 05:42:00,26.5,11.2,30.17,NE,41,2.3,2.3,52,0.00,CLR,SKC,0.00,WeatherDisplay:10.37,2013-04-16 11:42:00,
2013-04-16 05:47:00,26.5,10.8,30.17,NE,41,1.1,1.1,51,0.00,CLR,SKC,0.00,WeatherDisplay:10.37,2013-04-16 11:47:00,
2013-04-16 05:53:00,26.4,10.7,30.17,NE,41,0.0,2.0,51,0.00,CLR,SKC,0.00,WeatherDisplay:10.37,2013-04-16 11:53:00,
2013-04-16 05:58:00,26.3,10.6,30.17,NE,41,0.0,2.0,51,0.00,CLR,SKC,0.00,WeatherDisplay:10.37,2013-04-16 11:58:00,
2013-04-16 06:03:00,26.0,10.8,30.17,NE,41,0.0,1.0,52,0.00,CLR,SKC,0.00,WeatherDisplay:10.37,2013-04-16 12:03:00,
2013-04-16 06:08:00,25.6,10.4,30.17,NE,41,0.0,1.0,52,0.00,CLR,SKC,0.00,WeatherDisplay:10.37,2013-04-16 12:08:00,
2013-04-16 06:13:00,25.3,10.5,30.17,NE,41,0.0,0.0,53,0.00,CLR,SKC,0.00,WeatherDisplay:10.37,2013-04-16 12:13:00,
2013-04-16 06:18:00,25.2,10.9,30.17,NE,41,0.0,0.0,54,0.00,CLR,SKC,0.00,WeatherDisplay:10.37,2013-04-16 12:18:00,
2013-04-16 06:23:00,25.0,11.5,30.17,NE,41,1.0,1.0,56,0.00,CLR,SKC,0.00,WeatherDisplay:10.37,2013-04-16 12:23:00,
2013-04-16 06:28:00,24.7,12.0,30.17,NE,41,0.0,0.0,58,0.00,CLR,SKC,0.00,WeatherDisplay:10.37,2013-04-16 12:28:00,
2013-04-16 06:33:00,24.4,11.7,30.17,NE,41,0.0,0.0,58,0.00,CLR,SKC,0.00,WeatherDisplay:10.37,2013-04-16 12:33:00,
2013-04-16 06:38:00,24.0,11.0,30.17,NE,41,0.0,0.0,57,0.00,CLR,SKC,0.00,WeatherDisplay:10.37,2013-04-16 12:38:00,
2013-04-16 06:43:00,23.9,10.9,30.17,NE,41,1.1,1.1,57,0.00,CLR,SKC,0.00,WeatherDisplay:10.37,2013-04-16 12:43:00,
2013-04-16 06:48:00,24.0,10.6,30.18,NE,41,0.0,0.0,56,0.00,CLR,SKC,0.00,WeatherDisplay:10.37,2013-04-16 12:48:00,
2013-04-16 06:53:00,24.1,10.6,30.18,NE,41,0.0,0.0,56,0.00,CLR,SKC,0.00,WeatherDisplay:10.37,2013-04-16 12:53:00,
2013-04-16 06:58:00,24.3,11.6,30.18,NE,41,0.0,0.0,58,0.00,CLR,SKC,0.00,WeatherDisplay:10.37,2013-04-16 12:58:00,
2013-04-16 07:03:00,24.2,13.0,30.18,NE,41,0.0,0.0,62,0.00,CLR,SKC,0.00,WeatherDisplay:10.37,2013-04-16 13:03:00,
2013-04-16 07:08:00,24.0,14.3,30.18,NE,41,0.0,0.0,66,0.00,CLR,SKC,0.00,WeatherDisplay:10.37,2013-04-16 13:08:00,
2013-04-16 07:13:00,23.8,12.7,30.18,NE,41,0.0,0.0,62,0.00,CLR,SKC,0.00,WeatherDisplay:10.37,2013-04-16 13:13:00,
2013-04-16 07:18:00,23.7,12.9,30.18,NE,41,0.0,0.0,63,0.00,CLR,SKC,0.00,WeatherDisplay:10.37,2013-04-16 13:18:00,
2013-04-16 07:24:00,23.6,13.2,30.18,NE,41,0.0,0.0,64,0.00,CLR,SKC,0.00,WeatherDisplay:10.37,2013-04-16 13:24:00,
2013-04-16 07:29:00,23.5,12.4,30.18,NE,41,0.0,1.0,62,0.00,CLR,SKC,0.00,WeatherDisplay:10.37,2013-04-16 13:29:00,
2013-04-16 07:34:00,23.8,12.3,30.18,NE,41,1.1,1.1,61,0.00,CLR,SKC,0.00,WeatherDisplay:10.37,2013-04-16 13:34:00,
2013-04-16 07:39:00,24.5,11.8,30.18,NE,41,1.1,1.1,58,0.00,CLR,SKC,0.00,WeatherDisplay:10.37,2013-04-16 13:39:00,
2013-04-16 07:44:00,25.4,11.0,30.19,NE,35,2.3,2.3,54,0.00,CLR,SKC,0.00,WeatherDisplay:10.37,2013-04-16 13:44:00,
2013-04-16 07:49:00,26.2,11.4,30.19,NE,35,2.3,2.3,53,0.00,CLR,SKC,0.00,WeatherDisplay:10.37,2013-04-16 13:49:00,
2013-04-16 07:54:00,26.7,11.0,30.19,NE,34,1.1,1.1,51,0.00,CLR,SKC,0.00,WeatherDisplay:10.37,2013-04-16 13:54:00,
2013-04-16 07:59:00,27.1,10.9,30.19,NE,35,2.3,2.3,50,0.00,CLR,SKC,0.00,WeatherDisplay:10.37,2013-04-16 13:59:00,
2013-04-16 08:04:00,27.5,11.7,30.19,NE,35,1.1,1.1,51,0.00,CLR,SKC,0.00,WeatherDisplay:10.37,2013-04-16 14:04:00,
2013-04-16 08:09:00,27.8,12.0,30.19,NE,35,1.1,1.1,51,0.00,CLR,SKC,0.00,WeatherDisplay:10.37,2013-04-16 14:09:00,
2013-04-16 08:14:00,28.1,11.4,30.19,NNE,33,2.3,2.3,49,0.00,CLR,SKC,0.00,WeatherDisplay:10.37,2013-04-16 14:14:00,
2013-04-16 08:19:00,28.3,11.6,30.19,NNE,32,2.3,2.3,49,0.00,CLR,SKC,0.00,WeatherDisplay:10.37,2013-04-16 14:19:00,
2013-04-16 08:24:00,28.5,10.8,30.19,NNE,32,3.5,3.5,47,0.00,CLR,SKC,0.00,WeatherDisplay:10.37,2013-04-16 14:24:00,
2013-04-16 08:29:00,28.7,11.0,30.19,NNE,30,2.3,2.3,47,0.00,CLR,SKC,0.00,WeatherDisplay:10.37,2013-04-16 14:29:00,
2013-04-16 08:34:00,28.9,10.7,30.19,NE,51,2.3,2.3,46,0.00,CLR,SKC,0.00,WeatherDisplay:10.37,2013-04-16 14:34:00,
2013-04-16 08:39:00,28.9,10.7,30.19,NNE,15,1.1,1.1,46,0.00,CLR,SKC,0.00,WeatherDisplay:10.37,2013-04-16 14:39:00,
2013-04-16 08:44:00,29.0,10.8,30.19,NNE,17,2.3,2.3,46,0.00,CLR,SKC,0.00,WeatherDisplay:10.37,2013-04-16 14:44:00,
2013-04-16 08:49:00,29.2,11.0,30.19,NNE,27,2.3,2.3,46,0.00,CLR,SKC,0.00,WeatherDisplay:10.37,2013-04-16 14:49:00,
2013-04-16 08:54:00,29.4,10.6,30.19,NNE,19,1.1,1.1,45,0.00,CLR,SKC,0.00,WeatherDisplay:10.37,2013-04-16 14:54:00,
2013-04-16 08:59:00,29.6,11.3,30.19,NNE,23,2.0,2.0,46,0.00,CLR,SKC,0.00,WeatherDisplay:10.37,2013-04-16 14:59:00,
2013-04-16 09:05:00,29.8,10.5,30.19,NE,42,2.3,2.3,44,0.00,CLR,SKC,0.00,WeatherDisplay:10.37,2013-04-16 15:05:00,
2013-04-16 09:10:00,30.1,10.8,30.19,NNE,24,3.5,3.5,44,0.00,CLR,SKC,0.00,WeatherDisplay:10.37,2013-04-16 15:10:00,
2013-04-16 09:15:00,30.1,10.3,30.19,NNE,30,2.3,2.3,43,0.00,CLR,SKC,0.00,WeatherDisplay:10.37,2013-04-16 15:15:00,
2013-04-16 09:20:00,30.4,11.1,30.19,NE,51,3.5,3.5,44,0.00,CLR,SKC,0.00,WeatherDisplay:10.37,2013-04-16 15:20:00,
2013-04-16 09:25:00,30.5,11.1,30.19,NE,53,2.0,2.0,44,0.00,CLR,SKC,0.00,WeatherDisplay:10.37,2013-04-16 15:25:00,
2013-04-16 09:30:00,30.7,10.8,30.19,ENE,62,3.5,3.5,43,0.00,CLR,SKC,0.00,WeatherDisplay:10.37,2013-04-16 15:30:00,
2013-04-16 09:35:00,30.9,11.0,30.19,NE,44,2.3,2.3,43,0.00,CLR,SKC,0.00,WeatherDisplay:10.37,2013-04-16 15:35:00,
2013-04-16 09:40:00,31.0,11.6,30.19,North,5,4.0,4.0,44,0.00,CLR,SKC,0.00,WeatherDisplay:10.37,2013-04-16 15:40:00,
2013-04-16 09:45:00,31.0,11.1,30.19,North,5,2.3,2.3,43,0.00,CLR,SKC,0.00,WeatherDisplay:10.37,2013-04-16 15:45:00,
2013-04-16 09:50:00,31.2,10.7,30.19,North,5,3.5,3.5,42,0.00,CLR,SKC,0.00,WeatherDisplay:10.37,2013-04-16 15:50:00,
2013-04-16 09:55:00,31.3,10.8,30.19,NNE,32,3.5,3.5,42,0.00,CLR,SKC,0.00,WeatherDisplay:10.37,2013-04-16 15:55:00,
2013-04-16 10:00:00,31.6,12.2,30.19,ENE,57,3.5,3.5,44,0.00,CLR,SKC,0.00,WeatherDisplay:10.37,2013-04-16 16:00:00,
2013-04-16 10:05:00,31.9,11.4,30.19,NE,42,3.5,3.5,42,0.00,CLR,SKC,0.00,WeatherDisplay:10.37,2013-04-16 16:05:00,
2013-04-16 10:10:00,32.2,12.2,30.19,NE,43,2.3,2.3,43,0.00,CLR,SKC,0.00,WeatherDisplay:10.37,2013-04-16 16:10:00,
2013-04-16 10:15:00,32.6,12.0,30.19,NE,42,1.1,1.1,42,0.00,CLR,SKC,0.00,WeatherDisplay:10.37,2013-04-16 16:15:00,
2013-04-16 10:19:00,32.8,11.6,30.19,NE,38,3.5,3.5,41,0.00,CLR,SKC,0.00,WeatherDisplay:10.37,2013-04-16 16:19:00,
2013-04-16 10:25:00,32.9,11.7,30.19,NE,46,3.5,3.5,41,0.00,CLR,SKC,0.00,WeatherDisplay:10.37,2013-04-16 16:25:00,
2013-04-16 10:30:00,33.0,11.8,30.19,NE,36,3.5,3.5,41,0.00,CLR,SKC,0.00,WeatherDisplay:10.37,2013-04-16 16:30:00,
2013-04-16 10:35:00,33.0,11.8,30.19,NE,55,3.5,3.5,41,0.00,CLR,SKC,0.00,WeatherDisplay:10.37,2013-04-16 16:35:00,
2013-04-16 10:41:00,32.6,12.0,30.19,NNE,15,3.5,3.5,42,0.00,CLR,SKC,0.00,WeatherDisplay:10.37,2013-04-16 16:41:00,
2013-04-16 10:46:00,32.3,11.2,30.19,NE,38,3.5,3.5,41,0.00,CLR,SKC,0.00,WeatherDisplay:10.37,2013-04-16 16:46:00,
2013-04-16 10:51:00,32.3,12.3,30.19,NE,39,3.5,3.5,43,0.00,CLR,SKC,0.00,WeatherDisplay:10.37,2013-04-16 16:51:00,
2013-04-16 10:56:00,32.2,11.6,30.19,NE,34,3.5,3.5,42,0.00,CLR,SKC,0.00,WeatherDisplay:10.37,2013-04-16 16:56:00,
2013-04-16 11:01:00,32.4,12.4,30.20,North,355,2.3,2.3,43,0.00,CLR,SKC,0.00,WeatherDisplay:10.37,2013-04-16 17:01:00,
2013-04-16 11:06:00,32.8,13.2,30.20,ENE,59,5.8,5.8,44,0.00,CLR,SKC,0.00,WeatherDisplay:10.37,2013-04-16 17:06:00,
2013-04-16 11:11:00,33.2,12.0,30.20,NNE,33,3.5,3.5,41,0.00,CLR,SKC,0.00,WeatherDisplay:10.37,2013-04-16 17:11:00,
2013-04-16 11:17:00,33.6,12.9,30.20,North,5,2.3,2.3,42,0.00,CLR,SKC,0.00,WeatherDisplay:10.37,2013-04-16 17:17:00,
2013-04-16 11:22:00,33.6,11.8,30.19,NNE,17,3.5,3.5,40,0.00,CLR,SKC,0.00,WeatherDisplay:10.37,2013-04-16 17:22:00,
2013-04-16 11:27:00,33.3,12.1,30.20,NE,38,3.5,3.5,41,0.00,CLR,SKC,0.00,WeatherDisplay:10.37,2013-04-16 17:27:00,
2013-04-16 11:32:00,33.2,12.6,30.20,NNE,13,4.0,4.0,42,0.00,CLR,SKC,0.00,WeatherDisplay:10.37,2013-04-16 17:32:00,
2013-04-16 11:37:00,33.3,12.1,30.20,North,355,2.3,2.3,41,0.00,CLR,SKC,0.00,WeatherDisplay:10.37,2013-04-16 17:37:00,
2013-04-16 11:42:00,33.9,13.2,30.19,North,350,3.5,3.5,42,0.00,CLR,SKC,0.00,WeatherDisplay:10.37,2013-04-16 17:42:00,
2013-04-16 11:48:00,34.4,14.2,30.19,NE,40,3.0,3.0,43,0.00,CLR,SKC,0.00,WeatherDisplay:10.37,2013-04-16 17:48:00,
2013-04-16 11:53:00,34.7,12.8,30.19,NE,39,4.0,4.0,40,0.00,CLR,SKC,0.00,WeatherDisplay:10.37,2013-04-16 17:53:00,
2013-04-16 11:58:00,34.6,13.3,30.19,NNW,347,3.5,3.5,41,0.00,CLR,SKC,0.00,WeatherDisplay:10.37,2013-04-16 17:58:00,
2013-04-16 12:03:00,35.0,13.1,30.19,NE,49,4.0,4.0,40,0.00,CLR,SKC,0.00,WeatherDisplay:10.37,2013-04-16 18:03:00,
2013-04-16 12:08:00,35.3,12.2,30.19,NNE,15,4.0,4.0,38,0.00,CLR,SKC,0.00,WeatherDisplay:10.37,2013-04-16 18:08:00,
2013-04-16 12:13:00,35.5,13.0,30.19,North,11,4.6,4.6,39,0.00,CLR,SKC,0.00,WeatherDisplay:10.37,2013-04-16 18:13:00,
2013-04-16 12:18:00,35.5,13.0,30.19,North,10,3.5,3.5,39,0.00,CLR,SKC,0.00,WeatherDisplay:10.37,2013-04-16 18:18:00,
2013-04-16 12:23:00,35.7,13.1,30.19,NE,40,3.5,3.5,39,0.00,CLR,SKC,0.00,WeatherDisplay:10.37,2013-04-16 18:23:00,
2013-04-16 12:28:00,35.9,12.1,30.19,NNW,331,4.0,4.0,37,0.00,CLR,SKC,0.00,WeatherDisplay:10.37,2013-04-16 18:28:00,
2013-04-16 12:33:00,36.0,12.2,30.18,NNW,337,3.5,3.5,37,0.00,CLR,SKC,0.00,WeatherDisplay:10.37,2013-04-16 18:33:00,
2013-04-16 12:38:00,36.1,13.5,30.18,North,355,3.5,3.5,39,0.00,CLR,SKC,0.00,WeatherDisplay:10.37,2013-04-16 18:38:00,
2013-04-16 12:43:00,36.0,12.2,30.18,NE,36,3.0,3.0,37,0.00,CLR,SKC,0.00,WeatherDisplay:10.37,2013-04-16 18:43:00,
2013-04-16 12:48:00,36.0,13.4,30.18,NE,47,6.9,6.9,39,0.00,CLR,SKC,0.00,WeatherDisplay:10.37,2013-04-16 18:48:00,
2013-04-16 12:53:00,36.2,13.0,30.18,NE,51,3.5,3.5,38,0.00,CLR,SKC,0.00,WeatherDisplay:10.37,2013-04-16 18:53:00,
2013-04-16 12:58:00,36.1,12.9,30.18,NE,39,3.5,3.5,38,0.00,CLR,SKC,0.00,WeatherDisplay:10.37,2013-04-16 18:58:00,
2013-04-16 13:03:00,36.4,12.6,30.18,NW,320,3.5,3.5,37,0.00,CLR,SKC,0.00,WeatherDisplay:10.37,2013-04-16 19:03:00,
2013-04-16 13:08:00,36.9,13.0,30.18,ENE,61,3.5,3.5,37,0.00,CLR,SKC,0.00,WeatherDisplay:10.37,2013-04-16 19:08:00,
2013-04-16 13:13:00,37.1,13.2,30.18,NE,36,4.6,4.6,37,0.00,CLR,SKC,0.00,WeatherDisplay:10.37,2013-04-16 19:13:00,
2013-04-16 13:18:00,37.3,13.4,30.17,North,349,3.5,3.5,37,0.00,CLR,SKC,0.00,WeatherDisplay:10.37,2013-04-16 19:18:00,
2013-04-16 13:23:00,37.9,13.3,30.17,North,349,2.3,2.3,36,0.00,CLR,SKC,0.00,WeatherDisplay:10.37,2013-04-16 19:23:00,
2013-04-16 13:28:00,38.5,13.8,30.18,NNE,20,3.5,3.5,36,0.00,CLR,SKC,0.00,WeatherDisplay:10.37,2013-04-16 19:28:00,
2013-04-16 13:33:00,38.4,13.1,30.17,North,10,2.3,2.3,35,0.00,CLR,SKC,0.00,WeatherDisplay:10.37,2013-04-16 19:33:00,
2013-04-16 13:38:00,38.2,12.9,30.17,NNW,343,3.5,3.5,35,0.00,CLR,SKC,0.00,WeatherDisplay:10.37,2013-04-16 19:38:00,
2013-04-16 13:43:00,38.5,13.8,30.17,North,0,1.0,3.0,36,0.00,CLR,SKC,0.00,WeatherDisplay:10.37,2013-04-16 19:43:00,
2013-04-16 13:49:00,39.2,13.8,30.17,NNE,32,1.0,5.0,35,0.00,CLR,SKC,0.00,WeatherDisplay:10.37,2013-04-16 19:49:00,
2013-04-16 13:54:00,39.6,13.5,30.17,NNE,32,3.5,3.5,34,0.00,CLR,SKC,0.00,WeatherDisplay:10.37,2013-04-16 19:54:00,
2013-04-16 13:59:00,40.1,13.3,30.17,NNE,15,4.6,4.6,33,0.00,CLR,SKC,0.00,WeatherDisplay:10.37,2013-04-16 19:59:00,
2013-04-16 14:04:00,39.6,12.8,30.17,NNW,342,3.5,3.5,33,0.00,CLR,SKC,0.00,WeatherDisplay:10.37,2013-04-16 20:04:00,
2013-04-16 14:09:00,39.8,13.0,30.17,NE,42,4.6,4.6,33,0.00,CLR,SKC,0.00,WeatherDisplay:10.37,2013-04-16 20:09:00,
2013-04-16 14:15:00,39.2,11.8,30.17,NNE,30,2.3,2.3,32,0.00,CLR,SKC,0.00,WeatherDisplay:10.37,2013-04-16 20:15:00,
2013-04-16 14:20:00,38.5,12.5,30.17,NE,46,1.1,1.1,34,0.00,CLR,SKC,0.00,WeatherDisplay:10.37,2013-04-16 20:20:00,
2013-04-16 14:25:00,38.3,13.0,30.17,NE,37,3.5,3.5,35,0.00,CLR,SKC,0.00,WeatherDisplay:10.37,2013-04-16 20:25:00,
2013-04-16 14:30:00,38.6,14.5,30.17,NE,36,3.5,3.5,37,0.00,CLR,SKC,0.00,WeatherDisplay:10.37,2013-04-16 20:30:00,
2013-04-16 14:35:00,38.9,12.9,30.17,NE,46,3.5,3.5,34,0.00,CLR,SKC,0.00,WeatherDisplay:10.37,2013-04-16 20:35:00,
2013-04-16 14:41:00,38.4,13.1,30.17,NNE,24,3.5,3.5,35,0.00,CLR,SKC,0.00,WeatherDisplay:10.37,2013-04-16 20:41:00,
2013-04-16 14:46:00,38.1,12.8,30.17,NNE,33,3.5,3.5,35,0.00,CLR,SKC,0.00,WeatherDisplay:10.37,2013-04-16 20:46:00,
2013-04-16 14:51:00,38.3,11.7,30.17,NNE,22,3.5,3.5,33,0.00,CLR,SKC,0.00,WeatherDisplay:10.37,2013-04-16 20:51:00,
2013-04-16 14:56:00,38.9,12.2,30.17,ENE,77,2.3,2.3,33,0.00,CLR,SKC,0.00,WeatherDisplay:10.37,2013-04-16 20:56:00,
2013-04-16 15:01:00,39.4,13.3,30.17,NE,35,4.6,4.6,34,0.00,CLR,SKC,0.00,WeatherDisplay:10.37,2013-04-16 21:01:00,
2013-04-16 15:06:00,39.5,12.7,30.18,NNE,19,3.5,3.5,33,0.00,CLR,SKC,0.00,WeatherDisplay:10.37,2013-04-16 21:06:00,
2013-04-16 15:11:00,39.1,12.4,30.17,NNE,26,4.0,4.0,33,0.00,CLR,SKC,0.00,WeatherDisplay:10.37,2013-04-16 21:11:00,
2013-04-16 15:15:00,39.0,14.3,30.17,NE,34,3.0,3.0,36,0.00,CLR,SKC,0.00,WeatherDisplay:10.37,2013-04-16 21:15:00,
2013-04-16 15:20:00,39.1,13.7,30.17,NE,36,2.3,2.3,35,0.00,CLR,SKC,0.00,WeatherDisplay:10.37,2013-04-16 21:20:00,
2013-04-16 15:25:00,39.5,13.4,30.17,NE,46,3.5,3.5,34,0.00,CLR,SKC,0.00,WeatherDisplay:10.37,2013-04-16 21:25:00,
2013-04-16 15:31:00,40.4,14.9,30.17,NE,42,3.5,3.5,35,0.00,CLR,SKC,0.00,WeatherDisplay:10.37,2013-04-16 21:31:00,
2013-04-16 15:36:00,40.0,13.2,30.17,NNE,23,2.3,2.3,33,0.00,CLR,SKC,0.00,WeatherDisplay:10.37,2013-04-16 21:36:00,
2013-04-16 15:41:00,39.4,13.3,30.17,NNE,33,3.5,3.5,34,0.00,CLR,SKC,0.00,WeatherDisplay:10.37,2013-04-16 21:41:00,
2013-04-16 15:47:00,38.9,12.2,30.17,NE,38,3.5,3.5,33,0.00,CLR,SKC,0.00,WeatherDisplay:10.37,2013-04-16 21:47:00,
2013-04-16 15:53:00,39.3,11.9,30.17,NNE,31,1.0,3.0,32,0.00,CLR,SKC,0.00,WeatherDisplay:10.37,2013-04-16 21:53:00,
2013-04-16 15:58:00,40.0,13.2,30.17,NE,41,3.5,3.5,33,0.00,CLR,SKC,0.00,WeatherDisplay:10.37,2013-04-16 21:58:00,
2013-04-16 16:03:00,40.6,12.3,30.17,ENE,61,3.5,3.5,31,0.00,CLR,SKC,0.00,WeatherDisplay:10.37,2013-04-16 22:03:00,
2013-04-16 16:08:00,40.4,14.2,30.17,NNE,24,3.5,3.5,34,0.00,CLR,SKC,0.00,WeatherDisplay:10.37,2013-04-16 22:08:00,
2013-04-16 16:13:00,39.9,13.8,30.17,NNE,28,3.5,3.5,34,0.00,CLR,SKC,0.00,WeatherDisplay:10.37,2013-04-16 22:13:00,
2013-04-16 16:18:00,39.5,13.4,30.17,NNE,19,3.5,3.5,34,0.00,CLR,SKC,0.00,WeatherDisplay:10.37,2013-04-16 22:18:00,
2013-04-16 16:23:00,40.0,14.5,30.17,NNE,19,2.3,2.3,35,0.00,CLR,SKC,0.00,WeatherDisplay:10.37,2013-04-16 22:23:00,
2013-04-16 16:28:00,40.5,15.6,30.17,NE,34,3.5,3.5,36,0.00,CLR,SKC,0.00,WeatherDisplay:10.37,2013-04-16 22:28:00,
2013-04-16 16:33:00,40.1,14.6,30.17,NNE,30,3.5,3.5,35,0.00,CLR,SKC,0.00,WeatherDisplay:10.37,2013-04-16 22:33:00,
2013-04-16 16:38:00,39.5,15.3,30.18,NE,42,3.5,3.5,37,0.00,CLR,SKC,0.00,WeatherDisplay:10.37,2013-04-16 22:38:00,
2013-04-16 16:44:00,39.2,15.1,30.18,NNE,25,2.0,3.0,37,0.00,CLR,SKC,0.00,WeatherDisplay:10.37,2013-04-16 22:44:00,
2013-04-16 16:49:00,39.2,15.1,30.18,NE,46,3.5,3.5,37,0.00,CLR,SKC,0.00,WeatherDisplay:10.37,2013-04-16 22:49:00,
2013-04-16 16:54:00,39.4,15.9,30.18,ENE,61,2.3,2.3,38,0.00,CLR,SKC,0.00,WeatherDisplay:10.37,2013-04-16 22:54:00,
2013-04-16 16:59:00,39.7,15.5,30.18,ENE,59,3.5,3.5,37,0.00,CLR,SKC,0.00,WeatherDisplay:10.37,2013-04-16 22:59:00,
2013-04-16 17:04:00,39.5,14.1,30.17,NE,55,2.3,2.3,35,0.00,CLR,SKC,0.00,WeatherDisplay:10.37,2013-04-16 23:04:00,
2013-04-16 17:09:00,39.0,14.3,30.17,NE,54,0.0,0.0,36,0.00,CLR,SKC,0.00,WeatherDisplay:10.37,2013-04-16 23:09:00,
2013-04-16 17:14:00,38.9,14.2,30.17,NE,54,2.3,2.3,36,0.00,CLR,SKC,0.00,WeatherDisplay:10.37,2013-04-16 23:14:00,
2013-04-16 17:20:00,39.0,13.0,30.18,NE,44,2.3,2.3,34,0.00,CLR,SKC,0.00,WeatherDisplay:10.37,2013-04-16 23:20:00,
2013-04-16 17:25:00,39.0,13.0,30.18,ENE,59,3.5,3.5,34,0.00,CLR,SKC,0.00,WeatherDisplay:10.37,2013-04-16 23:25:00,
2013-04-16 17:30:00,38.4,15.0,30.18,NE,38,3.5,3.5,38,0.00,CLR,SKC,0.00,WeatherDisplay:10.37,2013-04-16 23:30:00,
2013-04-16 17:35:00,37.5,15.3,30.18,NE,43,3.5,3.5,40,0.00,CLR,SKC,0.00,WeatherDisplay:10.37,2013-04-16 23:35:00,
2013-04-16 17:40:00,36.8,15.3,30.19,NE,55,2.3,2.3,41,0.00,CLR,SKC,0.00,WeatherDisplay:10.37,2013-04-16 23:40:00,
2013-04-16 17:45:00,36.5,16.1,30.19,NE,34,2.3,2.3,43,0.00,CLR,SKC,0.00,WeatherDisplay:10.37,2013-04-16 23:45:00,
2013-04-16 17:50:00,36.2,16.9,30.19,NE,42,3.5,3.5,45,0.00,CLR,SKC,0.00,WeatherDisplay:10.37,2013-04-16 23:50:00,
2013-04-16 17:55:00,36.1,16.8,30.19,NE,42,2.3,2.3,45,0.00,CLR,SKC,0.00,WeatherDisplay:10.37,2013-04-16 23:55:00,
2013-04-16 18:00:00,36.0,16.7,30.19,NE,42,2.3,2.3,45,0.00,CLR,SKC,0.00,WeatherDisplay:10.37,2013-04-17 00:00:00,
2013-04-16 18:05:00,36.2,17.4,30.20,NNE,15,3.5,3.5,46,0.00,CLR,SKC,0.00,WeatherDisplay:10.37,2013-04-17 00:05:00,
2013-04-16 18:10:00,36.5,17.1,30.20,NNE,13,3.5,3.5,45,0.00,CLR,SKC,0.00,WeatherDisplay:10.37,2013-04-17 00:10:00,
2013-04-16 18:15:00,36.5,16.1,30.20,NNW,348,2.3,2.3,43,0.00,CLR,SKC,0.00,WeatherDisplay:10.37,2013-04-17 00:15:00,
2013-04-16 18:20:00,36.4,16.5,30.20,North,349,2.3,2.3,44,0.00,CLR,SKC,0.00,WeatherDisplay:10.37,2013-04-17 00:20:00,
2013-04-16 18:25:00,36.5,16.1,30.20,North,349,1.1,1.1,43,0.00,CLR,SKC,0.00,WeatherDisplay:10.37,2013-04-17 00:25:00,
2013-04-16 18:30:00,37.0,17.1,30.20,ENE,67,2.3,2.3,44,0.00,CLR,SKC,0.00,WeatherDisplay:10.37,2013-04-17 00:30:00,
2013-04-16 18:35:00,37.5,18.1,30.20,ENE,67,2.3,2.3,45,0.00,CLR,SKC,0.00,WeatherDisplay:10.37,2013-04-17 00:35:00,
2013-04-16 18:40:00,37.3,19.4,30.20,ENE,67,2.3,2.3,48,0.00,CLR,SKC,0.00,WeatherDisplay:10.37,2013-04-17 00:40:00,
2013-04-16 18:45:00,36.5,19.6,30.21,ENE,67,2.3,2.3,50,0.00,CLR,SKC,0.00,WeatherDisplay:10.37,2013-04-17 00:45:00,
2013-04-16 18:50:00,35.9,19.5,30.21,ENE,67,1.1,0.0,51,0.00,CLR,SKC,0.00,WeatherDisplay:10.37,2013-04-17 00:50:00,
2013-04-16 18:55:00,35.4,19.0,30.21,ENE,67,2.3,2.3,51,0.00,CLR,SKC,0.00,WeatherDisplay:10.37,2013-04-17 00:55:00,
2013-04-16 19:00:00,35.0,18.2,30.21,ENE,67,1.1,0.0,50,0.00,CLR,SKC,0.00,WeatherDisplay:10.37,2013-04-17 01:00:00,
2013-04-16 19:05:00,34.7,18.4,30.22,ENE,67,0.0,0.0,51,0.00,CLR,SKC,0.00,WeatherDisplay:10.37,2013-04-17 01:05:00,
2013-04-16 19:10:00,34.4,18.1,30.22,ENE,67,0.0,0.0,51,0.00,CLR,SKC,0.00,WeatherDisplay:10.37,2013-04-17 01:10:00,
2013-04-16 19:15:00,34.1,18.3,30.22,ENE,67,0.0,0.0,52,0.00,CLR,SKC,0.00,WeatherDisplay:10.37,2013-04-17 01:15:00,
2013-04-16 19:20:00,34.2,18.4,30.22,ENE,67,1.1,0.0,52,0.00,CLR,SKC,0.00,WeatherDisplay:10.37,2013-04-17 01:20:00,
2013-04-16 19:25:00,34.3,18.0,30.22,NNE,19,2.0,2.0,51,0.00,CLR,SKC,0.00,WeatherDisplay:10.37,2013-04-17 01:25:00,
2013-04-16 19:30:00,34.6,18.3,30.23,NE,47,2.3,2.3,51,0.00,CLR,SKC,0.00,WeatherDisplay:10.37,2013-04-17 01:30:00,
2013-04-16 19:36:00,34.7,17.0,30.23,ENE,63,3.5,3.5,48,0.00,CLR,SKC,0.00,WeatherDisplay:10.37,2013-04-17 01:36:00,
2013-04-16 19:41:00,34.4,17.2,30.23,ENE,63,2.3,2.3,49,0.00,CLR,SKC,0.00,WeatherDisplay:10.37,2013-04-17 01:41:00,
2013-04-16 19:46:00,34.3,18.0,30.23,ENE,63,1.1,0.0,51,0.00,CLR,SKC,0.00,WeatherDisplay:10.37,2013-04-17 01:46:00,
2013-04-16 19:51:00,34.2,17.9,30.23,NNE,24,1.1,1.1,51,0.00,CLR,SKC,0.00,WeatherDisplay:10.37,2013-04-17 01:51:00,
2013-04-16 19:56:00,34.1,17.4,30.24,NNE,24,1.1,1.1,50,0.00,CLR,SKC,0.00,WeatherDisplay:10.37,2013-04-17 01:56:00,
2013-04-16 20:01:00,34.1,17.4,30.23,ENE,67,1.1,1.1,50,0.00,CLR,SKC,0.00,WeatherDisplay:10.37,2013-04-17 02:01:00,
2013-04-16 20:05:00,34.0,17.7,30.23,ENE,65,2.3,2.3,51,0.00,CLR,SKC,0.00,WeatherDisplay:10.37,2013-04-17 02:05:00,
2013-04-16 20:10:00,33.8,17.6,30.24,ENE,65,0.0,0.0,51,0.00,CLR,SKC,0.00,WeatherDisplay:10.37,2013-04-17 02:10:00,
2013-04-16 20:15:00,33.6,17.4,30.23,ENE,65,0.0,0.0,51,0.00,CLR,SKC,0.00,WeatherDisplay:10.37,2013-04-17 02:15:00,
2013-04-16 20:20:00,33.4,17.6,30.23,ENE,65,0.0,0.0,52,0.00,CLR,SKC,0.00,WeatherDisplay:10.37,2013-04-17 02:20:00,
2013-04-16 20:25:00,33.1,17.4,30.24,ENE,65,0.0,0.0,52,0.00,CLR,SKC,0.00,WeatherDisplay:10.37,2013-04-17 02:25:00,
2013-04-16 20:30:00,32.8,17.1,30.24,ENE,65,0.0,0.0,52,0.00,CLR,SKC,0.00,WeatherDisplay:10.37,2013-04-17 02:30:00,
2013-04-16 20:35:00,32.5,16.8,30.24,ENE,65,0.0,0.0,52,0.00,CLR,SKC,0.00,WeatherDisplay:10.37,2013-04-17 02:35:00,
2013-04-16 20:41:00,32.3,15.7,30.24,ENE,65,0.0,0.0,50,0.00,CLR,SKC,0.00,WeatherDisplay:10.37,2013-04-17 02:41:00,
2013-04-16 20:46:00,32.1,16.0,30.25,ENE,65,0.0,0.0,51,0.00,CLR,SKC,0.00,WeatherDisplay:10.37,2013-04-17 02:46:00,
2013-04-16 20:51:00,31.9,15.8,30.25,ENE,65,0.0,0.0,51,0.00,CLR,SKC,0.00,WeatherDisplay:10.37,2013-04-17 02:51:00,
2013-04-16 20:56:00,31.7,15.6,30.25,ENE,65,1.1,1.1,51,0.00,CLR,SKC,0.00,WeatherDisplay:10.37,2013-04-17 02:56:00,
2013-04-16 21:01:00,31.7,15.6,30.25,ENE,64,1.1,1.1,51,0.00,CLR,SKC,0.00,WeatherDisplay:10.37,2013-04-17 03:01:00,
2013-04-16 21:06:00,31.7,15.6,30.25,ENE,64,2.3,2.3,51,0.00,CLR,SKC,0.00,WeatherDisplay:10.37,2013-04-17 03:06:00,
2013-04-16 21:11:00,31.7,15.6,30.26,NNE,32,2.3,2.3,51,0.00,CLR,SKC,0.00,WeatherDisplay:10.37,2013-04-17 03:11:00,
2013-04-16 21:16:00,31.7,15.6,30.26,NNE,32,1.1,1.1,51,0.00,CLR,SKC,0.00,WeatherDisplay:10.37,2013-04-17 03:16:00,
2013-04-16 21:21:00,31.7,15.2,30.26,NNE,32,2.3,2.3,50,0.00,CLR,SKC,0.00,WeatherDisplay:10.37,2013-04-17 03:21:00,
2013-04-16 21:26:00,31.8,15.3,30.27,NNE,32,2.3,2.3,50,0.00,CLR,SKC,0.00,WeatherDisplay:10.37,2013-04-17 03:26:00,
2013-04-16 21:31:00,31.6,16.4,30.27,NE,34,1.1,1.1,53,0.00,CLR,SKC,0.00,WeatherDisplay:10.37,2013-04-17 03:31:00,
2013-04-16 21:37:00,30.9,16.6,30.27,NE,34,1.1,1.1,55,0.00,CLR,SKC,0.00,WeatherDisplay:10.37,2013-04-17 03:37:00,
2013-04-16 21:42:00,30.6,16.7,30.28,NE,34,1.1,1.1,56,0.00,CLR,SKC,0.00,WeatherDisplay:10.37,2013-04-17 03:42:00,
2013-04-16 21:47:00,30.8,16.5,30.28,NE,34,1.1,1.1,55,0.00,CLR,SKC,0.00,WeatherDisplay:10.37,2013-04-17 03:47:00,
2013-04-16 21:52:00,30.9,17.0,30.28,NE,34,1.0,1.0,56,0.00,CLR,SKC,0.00,WeatherDisplay:10.37,2013-04-17 03:52:00,
2013-04-16 21:57:00,30.9,16.2,30.29,NE,34,2.3,2.3,54,0.00,CLR,SKC,0.00,WeatherDisplay:10.37,2013-04-17 03:57:00,
2013-04-16 22:00:00,31.0,16.3,30.29,NE,34,1.1,1.1,54,0.00,CLR,SKC,0.00,WeatherDisplay:10.37,2013-04-17 04:00:00,
2013-04-16 22:01:00,31.0,15.8,30.29,NE,34,1.1,0.0,53,0.00,CLR,SKC,0.00,WeatherDisplay:10.37,2013-04-17 04:01:00,
2013-04-16 22:03:00,31.0,16.3,30.29,NE,34,1.1,1.1,54,0.00,CLR,SKC,0.00,WeatherDisplay:10.37,2013-04-17 04:03:00,
2013-04-16 22:04:00,31.0,16.3,30.29,NE,34,2.3,2.3,54,0.00,CLR,SKC,0.00,WeatherDisplay:10.37,2013-04-17 04:04:00,
2013-04-16 22:09:00,30.9,15.8,30.29,NE,34,1.1,1.1,53,0.00,CLR,SKC,0.00,WeatherDisplay:10.37,2013-04-17 04:09:00,
2013-04-16 22:14:00,31.0,15.8,30.29,NE,34,1.1,1.1,53,0.00,CLR,SKC,0.00,WeatherDisplay:10.37,2013-04-17 04:14:00,
2013-04-16 22:19:00,31.0,15.8,30.29,NE,34,0.0,0.0,53,0.00,CLR,SKC,0.00,WeatherDisplay:10.37,2013-04-17 04:19:00,
2013-04-16 22:24:00,31.0,15.8,30.30,NE,34,2.0,2.0,53,0.00,CLR,SKC,0.00,WeatherDisplay:10.37,2013-04-17 04:24:00,
2013-04-16 22:29:00,31.0,16.3,30.30,NE,34,1.1,1.1,54,0.00,CLR,SKC,0.00,WeatherDisplay:10.37,2013-04-17 04:29:00,
2013-04-16 22:34:00,31.0,15.8,30.30,NE,34,2.3,2.3,53,0.00,CLR,SKC,0.00,WeatherDisplay:10.37,2013-04-17 04:34:00,
2013-04-16 22:40:00,31.0,15.4,30.30,NE,34,1.1,1.1,52,0.00,CLR,SKC,0.00,WeatherDisplay:10.37,2013-04-17 04:40:00,
2013-04-16 22:45:00,31.0,15.4,30.30,NE,34,1.1,1.1,52,0.00,CLR,SKC,0.00,WeatherDisplay:10.37,2013-04-17 04:45:00,
2013-04-16 22:50:00,30.8,15.2,30.30,NE,34,1.1,1.1,52,0.00,CLR,SKC,0.00,WeatherDisplay:10.37,2013-04-17 04:50:00,
2013-04-16 22:55:00,30.7,15.6,30.31,NE,34,1.1,1.1,53,0.00,CLR,SKC,0.00,WeatherDisplay:10.37,2013-04-17 04:55:00,
2013-04-16 23:02:00,30.5,15.4,30.30,NE,34,0.0,0.0,53,0.00,CLR,SKC,0.00,WeatherDisplay:10.37,2013-04-17 05:02:00,
2013-04-16 23:07:00,30.2,15.5,30.31,NE,34,0.0,0.0,54,0.00,CLR,SKC,0.00,WeatherDisplay:10.37,2013-04-17 05:07:00,
2013-04-16 23:12:00,30.0,14.9,30.30,NE,34,0.0,0.0,53,0.00,CLR,SKC,0.00,WeatherDisplay:10.37,2013-04-17 05:12:00,
2013-04-16 23:17:00,30.0,14.9,30.31,NE,34,1.1,1.1,53,0.00,CLR,SKC,0.00,WeatherDisplay:10.37,2013-04-17 05:17:00,
2013-04-16 23:22:00,30.0,14.9,30.31,NE,34,1.0,1.0,53,0.00,CLR,SKC,0.00,WeatherDisplay:10.37,2013-04-17 05:22:00,
2013-04-16 23:27:00,30.0,15.3,30.31,NE,34,1.1,1.1,54,0.00,CLR,SKC,0.00,WeatherDisplay:10.37,2013-04-17 05:27:00,
2013-04-16 23:32:00,29.9,14.8,30.31,NE,34,1.1,1.1,53,0.00,CLR,SKC,0.00,WeatherDisplay:10.37,2013-04-17 05:32:00,
2013-04-16 23:38:00,29.9,14.8,30.31,NE,34,1.1,0.0,53,0.00,CLR,SKC,0.00,WeatherDisplay:10.37,2013-04-17 05:38:00,
2013-04-16 23:43:00,29.8,14.7,30.31,NE,34,1.1,1.1,53,0.00,CLR,SKC,0.00,WeatherDisplay:10.37,2013-04-17 05:43:00,
2013-04-16 23:48:00,29.7,14.6,30.31,NE,34,0.0,0.0,53,0.00,CLR,SKC,0.00,WeatherDisplay:10.37,2013-04-17 05:48:00,
2013-04-16 23:53:00,29.4,14.4,30.31,NE,34,0.0,0.0,53,0.00,CLR,SKC,0.00,WeatherDisplay:10.37,2013-04-17 05:53:00,
2013-04-16 23:58:00,29.2,14.2,30.31,NE,34,1.0,1.0,53,0.00,CLR,SKC,0.00,WeatherDisplay:10.37,2013-04-17 05:58:00,